Regional Weather Roundup
Issued by NWS Green Bay, WI

Home | Current Version | Previous Version | Graphics & Text | Print | Product List | Glossary Off
Versions: 1 2 3 4 5 6 7 8 9 10 11 12 13 14 15 16 17 18 19 20 21 22 23 24 25 26 27 28 29 30 31 32 33 34 35 36 37 38 39 40 41 42 43 44 45 46 47 48 49 50

000
ASUS43 KGRB 191910
RWRGRB

NORTH-CENTRAL AND NORTHEAST WISCONSIN REGIONAL WEATHER ROUNDUP
NATIONAL WEATHER SERVICE GREEN BAY WI
200 PM CDT SAT APR 19 2014

WIZ005-009-010>012-018-019-192000-
NORTH CENTRAL WISCONSIN

CITY           SKY/WX    TMP DP  RH WIND       PRES   REMARKS
IRONWOOD       CLOUDY    50  27  40 S22G33    30.01F
MANITOWISH WTR PTSUNNY   47  27  44 S20G28    30.12F
ARBOR VITAE    CLOUDY    52  26  37 S17G23    30.15F
EAGLE RIVER    PTSUNNY   49  21  33 S13G26    30.17F
LAND O LAKES   PTSUNNY   51  22  31 S14G24    30.16F
RHINELANDER    PTSUNNY   47  25  42 S18G28    30.19F
PHILLIPS       CLOUDY    51  31  47 S16G24    30.13F
ANTIGO         MOSUNNY   49  31  50 SE17      30.24F
TOMAHAWK       PTSUNNY   50  28  42 SE10G16   30.18F
MERRILL        MOSUNNY   54  30  39 CALM      30.20F
$$

WIZ013-073-192000-
NORTHEAST WISCONSIN

CITY           SKY/WX    TMP DP  RH WIND       PRES   REMARKS
IRON MOUNTAIN  PTSUNNY   47  24  40 S17G25    30.25F
MARINETTE      SUNNY     43  28  56 E12       30.34F
OCONTO         MOSUNNY   48  29  48 SE13      30.32F
$$

WIZ017-030-035>037-045-192000-
CENTRAL WISCONSIN

CITY           SKY/WX    TMP DP  RH WIND       PRES   REMARKS
MEDFORD        MOSUNNY   52  34  49 SE16G22   30.18F
WAUSAU         SUNNY     55  29  36 S16       30.20F
MOSINEE        SUNNY     54  32  43 SE14G21   30.22F
MARSHFIELD     MOSUNNY   58  34  40 S20G25    30.18F
WISC RAPIDS    MOSUNNY   60  30  32 SE15G23   30.21F
STEVENS POINT  MOSUNNY   54  29  38 SE14G21   30.22F
WAUPACA        MOSUNNY   57  30  35 SE14G20   30.26F
SHAWANO        SUNNY     53  30  41 SE9       30.29F
CLINTONVILLE   MOSUNNY   52  30  43 S13G20    30.28F
$$

WIZ038-039-048-051-192000-
FOX VALLEY

CITY           SKY/WX    TMP DP  RH WIND       PRES   REMARKS
NWS GREEN BAY  MOSUNNY   51  33  50 SE12      30.31F
APPLETON       PTSUNNY   52  30  43 SE15G22   30.30F
OSHKOSH        MOSUNNY   55  33  43 SE13      30.28F
FOND DU LAC    MOSUNNY   55  35  47 S20       30.29F
$$

WIZ022-050-052-192000-
EAST CENTRAL WISCONSIN

CITY           SKY/WX    TMP DP  RH WIND       PRES   REMARKS
STURGEON BAY   MOSUNNY   46  28  49 S14G20    30.35F
MANITOWOC      MOSUNNY   43  31  62 S12       30.34F
SHEBOYGAN      MOSUNNY   47  34  60 S16       30.34F
$$

LMZ563-521-522-541>543-192000-
LAKESHORE

STATION/POSITION TIME  TEMP    WIND        PRES    VSBY  WAVE
                       AIR SEA DIR/SP/G                  HT/PER
                 (UTC) (F)     (DEG/KT/KT) (MB)    (MI)  (FT/S)
SHEBOYGAN LKSHOR 1900   38     180/ 13/ 14 1028.2F
KEWAUNEE LKSHORE 1900   36     160/  7/  8 1028.3R
TWO RIVERS CG    1800   37                   N/A       6   1
NORTHPORT PIER   1900   35      90/  7/  9 1028.4F
SISTER BAY LKSHO 1900   51     130/ 10/ 13   N/A
STURGEON BAY CG  1800   40     160/  5     1029.3      6   1
MENOMINEE LKSHOR 1900   37      50/  6/  7 1028.0F
$$



USA.gov is the U.S. government's official web portal to all federal, state and local government web resources and services.